RH
60 48 30 60 100 100 100 82 51 22 28 38 42 24 32 47 54 42 30 27 26 23 20 19 19 19 20 20 20 19 19 19 20 22 18 16 16 14 13 12 11 10 9
23 24 27 29 28 26 29 32 20 22 23 23 46 56 49 29 26 27 25 22 21 21 21 22 22 22 21 21 22 23 24 24 24 24 21 19 18 17 15 14 13 10 7
27 27 26 26 26 25 23 22 26 50 71 58 43 24 27 28 25 23 23 23 23 24 24 23 23 22 23 26 26 26 28 27 24 27 24 23 21 17 15 13 11 8 7
74 70 59 50 55 67 69 70 67 58 32 25 27 29 27 26 27 26 26 26 26 24 24 23 23 24 28 31 28 28 30 31 31 30 26 25 22 18 15 10 9 7 6
95 94 91 91 82 71 69 55 30 28 28 29 28 29 30 31 29 29 28 28 26 24 23 22 26 30 34 31 29 32 34 33 31 28 26 26 19 14 10 8 6 5 4
97 91 78 67 53 42 34 31 30 30 31 31 31 33 32 32 30 30 30 28 26 24 25 29 31 36 36 32 42 38 34 33 32 31 28 23 13 10 10 8 6 6 7
62 62 56 47 40 35 33 33 34 35 33 33 36 36 34 31 29 31 33 29 26 27 31 35 35 36 31 43 42 42 42 38 32 29 23 14 12 10 10 8 8 7 6
60 59 48 40 38 36 38 38 38 35 38 40 41 37 33 30 33 35 33 28 28 32 36 38 35 32 39 44 46 46 44 39 34 28 19 12 11 10 9 8 8 5 4
50 49 45 43 42 42 43 42 40 44 44 43 42 37 32 32 34 38 34 30 31 37 40 39 35 37 47 47 43 48 46 42 36 29 18 13 11 10 9 9 6 4 4
48 49 46 44 47 48 48 48 51 46 42 42 39 36 33 33 39 42 35 32 38 44 43 36 38 44 48 47 46 50 48 43 38 31 19 14 12 11 10 9 6 5 6
55 53 47 47 50 51 57 56 53 45 40 40 33 31 33 39 44 41 34 34 40 45 47 41 38 47 50 47 48 51 47 42 35 26 16 14 13 11 10 8 7 7 7
72 63 60 63 68 70 65 58 53 47 42 33 33 34 40 50 47 38 32 37 40 46 48 40 37 46 52 49 52 53 49 42 35 25 16 14 14 12 11 8 8 8 8
69 68 71 72 66 61 58 52 48 45 37 37 39 42 52 52 46 35 34 37 39 46 47 40 41 45 56 54 58 55 53 44 39 27 16 14 14 13 12 7 8 8 8
51 50 53 54 50 46 49 48 47 48 41 42 47 50 55 52 42 33 35 37 43 50 42 39 47 53 60 59 60 57 56 46 38 27 16 14 14 13 12 8 9 8 8
59 58 60 57 48 49 50 49 51 52 50 53 57 60 57 41 36 35 37 47 51 44 49 47 51 59 63 63 63 60 58 47 40 29 17 15 14 13 12 9 10 10 10
50 50 51 57 56 56 58 60 64 61 55 56 53 42 34 32 38 41 45 54 45 48 50 50 57 61 63 63 63 59 57 49 43 31 18 16 15 14 13 10 11 10 10
59 60 58 50 47 46 47 52 48 39 36 37 35 33 36 41 45 50 58 53 52 57 54 52 61 63 64 63 64 61 58 49 44 32 19 16 16 15 14 12 13 12 12
93 72 64 64 60 60 56 49 43 43 42 41 40 43 51 60 65 67 73 58 59 57 60 58 65 66 64 62 65 63 60 51 45 35 20 16 16 16 15 13 13 12 12
100 100 84 77 81 83 80 71 65 65 63 58 54 62 74 80 73 77 72 62 57 67 65 62 67 68 67 62 66 63 60 53 47 37 20 17 17 17 16 15 16 14 15
100 100 97 97 93 91 93 94 93 81 72 73 74 84 92 88 82 80 66 59 58 71 64 68 69 72 70 65 67 63 60 56 49 37 21 17 18 19 18 17 19 20 21
79 94 100 93 93 95 99 97 88 82 84 83 80 79 80 81 80 73 66 59 79 75 67 70 67 75 66 70 67 61 60 57 50 38 22 18 18 19 20 18 25 24 25
76 100 100 99 84 82 94 94 91 85 78 76 78 84 89 84 79 73 70 79 79 68 70 70 70 72 68 70 68 59 59 58 51 36 22 18 19 20 21 18 25 24 24
79 85 84 82 79 76 87 88 75 91 95 84 90 88 80 86 83 79 76 83 74 69 70 69 68 73 70 66 62 57 59 60 50 36 23 19 20 20 22 20 24 25 21
89 92 94 93 88 76 72 68 68 83 75 70 80 88 91 86 82 75 82 85 72 69 71 67 72 73 72 66 59 56 62 61 50 36 24 19 20 21 23 22 26 27 21
65 67 63 66 71 68 64 64 63 64 72 80 83 87 84 78 72 75 84 71 72 76 74 73 74 72 73 63 60 56 64 58 48 34 25 20 20 22 24 24 28 32 27
100 100 100 100 100 100 97 97 99 99 98 96 94 90 83 78 75 81 78 76 76 82 82 80 75 76 72 65 61 58 65 54 46 34 27 21 21 23 24 26 32 36 33
Wind_Speed
78 79 79 79 79 82 83 83 81 83 80 81 82 77 74 75 76 76 70 60 58 59 59 59 60 62 64 66 68 70 73 74 75 79 85 88 90 92 98 100 101 101 100
72 77 80 80 79 79 79 81 77 72 71 71 68 70 72 67 60 54 53 54 53 54 55 57 59 62 64 65 65 66 68 72 75 78 83 87 90 92 94 95 98 100 100
52 56 60 63 64 66 68 68 65 61 61 65 65 58 53 49 49 49 47 48 49 51 54 57 59 60 59 59 61 63 67 72 76 82 85 88 90 91 91 93 94 94 96
38 41 45 49 50 50 51 53 56 61 58 51 47 45 44 45 44 43 44 46 48 52 54 55 53 53 54 58 62 65 70 75 80 85 87 89 90 89 89 89 91 91 88
41 44 45 48 50 52 54 55 51 46 43 41 42 42 41 40 39 42 45 47 51 52 51 49 48 52 56 61 63 68 73 78 81 85 87 88 87 83 84 84 83 80 77
43 44 46 47 48 47 44 42 39 39 38 39 41 41 40 38 39 43 46 48 49 48 47 47 49 54 61 64 69 74 77 81 84 85 86 84 80 80 80 80 77 72 68
39 39 41 41 39 38 36 36 35 37 39 41 42 42 39 38 41 44 46 47 45 44 46 49 53 57 61 64 70 74 80 84 86 86 83 79 79 78 77 75 71 67 63
34 34 34 34 34 34 33 34 35 38 41 42 41 39 37 37 39 42 46 45 41 43 46 51 56 60 60 65 69 75 80 83 85 84 81 77 77 75 71 66 63 61 57
31 32 33 33 33 34 34 35 37 39 40 40 38 38 37 37 39 44 45 43 40 44 48 52 56 60 62 64 70 75 81 84 86 84 80 78 77 73 67 63 62 55 56
33 35 34 35 35 35 35 37 38 39 38 37 37 37 36 37 39 42 43 40 42 47 53 56 59 62 66 68 72 76 81 83 83 83 80 80 77 72 66 62 59 55 50
34 35 36 36 36 36 38 37 38 38 37 36 34 32 32 35 41 42 39 39 42 48 54 59 63 67 70 72 75 78 82 82 83 80 77 78 76 71 65 61 56 53 52
36 37 36 37 38 38 38 38 37 37 36 33 31 31 33 37 40 39 37 40 45 51 56 59 64 69 72 73 76 80 84 85 84 81 78 78 76 71 65 60 54 51 48
35 36 35 36 36 36 35 36 35 33 33 32 33 34 37 38 38 36 38 42 47 53 57 61 67 70 73 76 79 83 85 86 86 82 78 78 73 69 65 59 53 48 47
33 31 30 32 32 32 33 34 33 33 33 34 36 37 39 40 37 37 40 45 51 56 60 65 70 73 77 79 81 84 88 87 85 81 78 77 73 68 64 59 54 50 47
33 31 31 32 33 32 33 33 33 34 35 38 39 39 41 38 36 39 44 49 54 59 63 69 73 76 79 81 84 86 89 88 87 82 79 78 73 66 62 58 53 49 47
35 32 32 33 35 35 36 37 37 38 38 37 37 35 36 36 39 43 48 53 57 61 65 71 74 77 79 80 83 85 88 88 87 82 78 76 72 66 61 56 53 48 45
40 36 33 34 34 32 33 35 35 35 35 35 35 37 38 41 45 48 52 57 60 64 68 73 75 78 80 82 84 85 88 87 85 80 76 75 71 65 61 55 52 47 44
45 43 39 37 37 36 37 37 38 38 38 39 39 41 43 47 50 53 56 60 63 67 71 74 76 78 81 84 86 85 87 87 85 80 75 74 70 65 60 55 51 47 43
48 46 43 42 41 41 42 42 42 43 44 44 45 46 48 52 54 57 61 64 68 71 74 76 77 79 83 85 86 86 87 87 84 78 73 72 68 64 59 54 49 46 43
51 51 51 50 48 46 45 45 47 48 48 49 50 51 53 56 58 61 64 69 69 73 75 76 77 80 84 85 86 86 86 86 83 76 71 70 66 63 59 55 49 46 41
59 53 52 55 55 54 53 53 54 54 52 53 54 56 59 61 64 66 69 71 72 74 75 76 77 81 84 85 87 86 86 84 80 74 69 68 64 62 58 54 49 46 40
58 56 59 62 62 60 58 58 58 58 59 60 61 62 64 66 68 70 71 70 72 74 75 77 79 82 83 84 86 84 84 81 78 71 66 65 62 61 56 52 48 43 39
63 62 62 63 63 62 61 62 60 60 62 63 64 66 68 69 70 71 71 71 73 75 77 79 82 84 84 84 84 82 82 78 74 68 63 63 60 59 56 52 48 43 41
65 63 61 62 63 64 65 65 63 64 66 67 68 69 70 71 71 72 72 75 76 78 79 81 83 84 85 85 83 80 78 74 71 65 61 61 58 57 54 51 48 44 40
70 67 66 67 69 70 71 70 70 69 69 69 70 72 73 74 74 75 77 79 79 80 81 82 83 84 85 84 80 77 74 70 67 61 58 58 56 55 53 50 47 43 42
73 74 73 71 71 72 72 72 73 73 73 73 75 77 78 78 78 78 80 80 82 82 82 83 83 83 85 82 77 74 70 66 63 59 56 55 54 53 50 48 45 42 40
Wind_Direction
254 258 261 263 265 267 272 274 279 281 283 283 285 287 289 291 292 293 291 291 288 289 292 294 297 300 300 299 297 297 297 297 297 298 298 297 297 296 295 295 295 293 291
254 255 257 260 265 269 270 273 277 280 282 284 286 287 290 291 290 289 289 289 294 297 299 300 300 298 297 298 299 300 302 302 301 300 301 301 301 300 300 300 299 297 296
256 257 259 262 265 267 269 273 277 280 282 285 287 288 287 288 287 289 295 299 299 299 299 299 299 299 301 303 305 305 305 306 307 307 306 306 306 305 305 303 300 300 299
258 259 260 262 266 269 272 276 279 281 284 285 284 285 287 289 295 297 298 298 298 299 299 298 300 302 304 307 308 309 311 311 310 309 310 310 309 309 307 303 302 302 302
260 262 265 266 269 271 274 277 280 281 282 282 284 286 290 292 291 292 295 296 298 299 299 301 304 307 310 310 313 313 313 312 312 313 314 314 312 311 308 307 306 306 305
258 260 264 266 269 273 275 277 277 280 282 285 286 287 286 286 288 291 294 299 302 303 304 307 309 312 314 319 319 317 316 317 317 317 316 316 316 315 314 311 310 310 308
258 260 263 267 269 270 271 275 279 282 284 285 285 284 284 286 287 291 298 303 304 305 308 310 313 315 320 321 321 321 321 320 320 320 320 321 322 320 319 317 314 313 310
259 262 264 265 266 269 275 280 282 283 285 285 284 284 284 285 288 295 301 306 305 307 308 312 317 319 324 325 324 325 324 324 323 325 325 326 325 324 322 319 318 316 314
260 262 263 265 270 275 279 280 283 285 284 283 284 284 284 287 293 298 304 306 306 308 312 318 322 324 327 326 327 329 329 328 328 329 329 330 328 327 328 327 324 324 320
260 263 266 268 271 277 280 282 283 283 283 283 284 286 287 291 296 300 305 306 310 312 317 322 326 329 329 331 332 333 332 331 332 333 333 333 332 332 332 332 330 327 327
260 264 266 270 273 277 280 281 283 283 284 284 287 290 294 298 303 302 304 307 309 314 319 323 327 332 332 333 334 334 334 334 334 335 335 336 335 334 335 335 334 332 329
262 264 267 271 274 277 280 281 281 282 284 284 287 295 298 300 304 302 304 307 311 314 319 323 327 333 334 335 337 337 337 336 336 337 338 338 338 336 337 337 337 334 331
264 266 269 272 275 278 280 281 281 282 281 284 290 293 298 300 304 301 303 308 313 316 319 325 331 334 335 337 339 338 338 338 338 338 339 339 339 338 337 338 337 336 333
271 273 275 276 279 281 282 284 286 283 283 288 293 296 298 299 299 301 303 308 313 319 326 329 334 336 336 338 339 339 339 338 339 339 340 341 340 340 340 339 339 338 336
269 271 275 278 282 284 287 289 288 288 290 294 297 298 297 299 299 302 307 312 316 323 328 330 335 336 337 338 339 340 340 338 340 340 341 342 342 342 341 341 341 340 338
269 271 275 278 281 284 286 288 289 290 293 296 297 297 299 301 302 304 309 313 319 324 326 330 334 335 336 337 339 340 339 339 340 340 341 342 342 343 343 342 342 341 340
268 270 272 274 278 282 284 285 287 290 293 295 296 298 301 302 304 307 310 314 319 324 325 329 332 334 335 336 338 340 339 339 340 339 341 343 343 345 344 344 343 343 343
264 267 269 273 277 280 281 284 287 289 291 292 295 298 300 301 303 307 309 314 319 323 324 328 331 333 334 336 338 339 339 338 339 339 341 343 344 346 346 345 345 345 345
262 267 270 271 274 277 280 282 285 287 288 291 294 297 298 300 303 305 308 314 319 322 323 327 329 331 332 334 336 338 338 338 339 339 340 343 344 346 347 346 345 345 345
260 264 267 269 271 274 277 281 283 284 287 290 293 295 297 299 302 303 308 313 318 319 322 325 327 329 330 333 335 337 337 337 338 338 340 342 344 346 346 346 345 343 343
258 262 261 266 269 273 276 278 279 281 284 287 290 292 294 297 299 303 307 312 316 316 320 323 326 327 329 333 334 335 335 336 336 337 338 342 343 346 346 346 345 345 344
256 256 261 265 269 271 274 277 278 281 284 286 289 291 293 295 298 301 306 311 312 315 319 321 323 325 328 331 333 333 333 334 334 335 337 341 343 345 346 346 346 348 347
258 258 261 265 269 270 270 273 276 279 281 284 287 289 292 295 298 302 306 309 310 314 316 318 321 323 327 329 330 332 332 332 333 334 336 340 342 344 345 346 347 348 350
261 263 264 267 269 272 273 273 275 276 279 283 286 288 291 294 297 301 305 305 309 311 313 316 319 322 325 327 328 330 331 331 331 332 335 339 342 343 345 346 347 349 350
264 265 266 270 274 274 275 277 278 280 282 284 286 287 290 293 296 299 300 304 307 309 311 314 317 320 323 325 327 328 328 328 329 331 333 337 341 342 344 346 347 350 351
262 263 265 269 272 274 275 277 278 279 280 282 284 286 289 292 294 295 299 302 304 307 310 312 315 318 321 323 324 326 326 326 328 329 332 335 339 341 342 345 346 349 350